Time,TemperatureF,DewpointF,PressureIn,WindDirection,WindDirectionDegrees,WindSpeedMPH,WindSpeedGustMPH,Humidity,HourlyPrecipIn,Conditions,Clouds,dailyrainin,SoftwareType,DateUTC
2013-03-12 00:00:00,36.1,9.8,29.49,SSW,202,9.2,9.2,33,0.00,CLR,,0.00,WeatherDisplay:10.37,2013-03-12 04:00:00,
2013-03-12 00:01:00,36.1,9.8,29.49,SSW,202,9.2,9.2,33,0.00,CLR,,0.00,WeatherDisplay:10.37,2013-03-12 04:01:00,
2013-03-12 00:05:00,36.1,9.8,29.49,SW,230,8.0,9.0,33,0.00,CLR,CLR,0.00,WeatherDisplay:10.37,2013-03-12 04:05:00,
2013-03-12 00:10:00,36.1,9.8,29.49,SW,225,6.3,6.3,33,0.00,CLR,,0.00,WeatherDisplay:10.37,2013-03-12 04:10:00,
2013-03-12 00:15:00,36.1,9.8,29.50,SW,225,6.3,6.3,33,0.00,CLR,,0.00,WeatherDisplay:10.37,2013-03-12 04:15:00,
2013-03-12 00:20:00,36.1,10.4,29.51,SW,225,6.9,6.9,34,0.00,CLR,,0.00,WeatherDisplay:10.37,2013-03-12 04:20:00,
2013-03-12 00:25:00,36.0,9.6,29.51,WSW,247,8.1,8.1,33,0.00,CLR,,0.00,WeatherDisplay:10.37,2013-03-12 04:25:00,
2013-03-12 00:30:00,36.0,9.6,29.51,West,270,8.1,8.1,33,0.00,CLR,,0.00,WeatherDisplay:10.37,2013-03-12 04:30:00,
2013-03-12 00:35:00,35.8,9.4,29.51,WSW,247,8.1,8.1,33,0.00,CLR,,0.00,WeatherDisplay:10.37,2013-03-12 04:35:00,
2013-03-12 00:40:00,35.6,9.3,29.52,WSW,247,8.1,8.1,33,0.00,CLR,,0.00,WeatherDisplay:10.37,2013-03-12 04:40:00,
2013-03-12 00:45:00,35.4,9.1,29.53,WSW,247,8.1,8.1,33,0.00,CLR,,0.00,WeatherDisplay:10.37,2013-03-12 04:45:00,
2013-03-12 00:50:00,35.4,9.1,29.53,SW,225,8.1,8.1,33,0.00,CLR,,0.00,WeatherDisplay:10.37,2013-03-12 04:50:00,
2013-03-12 00:55:00,35.4,9.1,29.53,WSW,247,8.1,8.1,33,0.00,CLR,,0.00,WeatherDisplay:10.37,2013-03-12 04:55:00,
2013-03-12 01:00:00,35.4,9.1,29.53,WSW,247,8.1,8.1,33,0.00,CLR,,0.00,WeatherDisplay:10.37,2013-03-12 05:00:00,
2013-03-12 01:05:00,35.2,9.0,29.54,WSW,247,8.1,8.1,33,0.00,CLR,,0.00,WeatherDisplay:10.37,2013-03-12 05:05:00,
2013-03-12 01:10:00,35.2,9.0,29.54,WSW,247,7.3,7.3,33,0.00,CLR,,0.00,WeatherDisplay:10.37,2013-03-12 05:10:00,
2013-03-12 01:15:00,35.2,9.0,29.54,WNW,292,7.3,7.3,33,0.00,CLR,,0.00,WeatherDisplay:10.37,2013-03-12 05:15:00,
2013-03-12 01:20:00,35.2,9.0,29.54,WSW,247,7.3,7.3,33,0.00,CLR,,0.00,WeatherDisplay:10.37,2013-03-12 05:20:00,
2013-03-12 01:25:00,35.2,9.0,29.55,WNW,292,8.1,8.1,33,0.00,CLR,,0.00,WeatherDisplay:10.37,2013-03-12 05:25:00,
2013-03-12 01:30:00,35.2,9.0,29.55,WNW,292,8.1,8.1,33,0.00,CLR,,0.00,WeatherDisplay:10.37,2013-03-12 05:30:00,
2013-03-12 01:35:00,35.1,8.8,29.50,WSW,247,8.1,8.1,33,0.00,CLR,,0.00,WeatherDisplay:10.37,2013-03-12 05:35:00,
2013-03-12 01:40:00,35.1,8.8,29.50,SW,225,9.5,9.5,33,0.00,CLR,,0.00,WeatherDisplay:10.37,2013-03-12 05:40:00,
2013-03-12 01:45:00,35.1,8.8,29.51,SSW,202,9.5,9.5,33,0.00,CLR,,0.00,WeatherDisplay:10.37,2013-03-12 05:45:00,
2013-03-12 01:50:00,35.1,8.8,29.52,WSW,247,9.5,9.5,33,0.00,CLR,,0.00,WeatherDisplay:10.37,2013-03-12 05:50:00,
2013-03-12 01:55:00,34.9,8.6,29.52,SW,225,9.5,9.5,33,0.00,CLR,,0.00,WeatherDisplay:10.37,2013-03-12 05:55:00,
2013-03-12 02:00:00,35.1,8.8,29.52,WSW,247,9.5,9.5,33,0.00,CLR,,0.00,WeatherDisplay:10.37,2013-03-12 06:00:00,
2013-03-12 02:05:00,35.1,8.8,29.53,WSW,247,9.5,9.5,33,0.00,CLR,,0.00,WeatherDisplay:10.37,2013-03-12 06:05:00,
2013-03-12 02:10:00,34.9,8.6,29.53,WSW,247,9.5,9.5,33,0.00,CLR,,0.00,WeatherDisplay:10.37,2013-03-12 06:10:00,
2013-03-12 02:15:00,34.9,8.6,29.54,SW,225,9.5,9.5,33,0.00,CLR,,0.00,WeatherDisplay:10.37,2013-03-12 06:15:00,
2013-03-12 02:20:00,34.9,8.6,29.54,WSW,247,9.5,9.5,33,0.00,CLR,,0.00,WeatherDisplay:10.37,2013-03-12 06:20:00,
2013-03-12 02:25:00,34.7,8.5,29.54,West,270,9.7,9.7,33,0.00,CLR,,0.00,WeatherDisplay:10.37,2013-03-12 06:25:00,
2013-03-12 02:30:00,34.7,8.5,29.54,West,270,9.7,9.7,33,0.00,CLR,,0.00,WeatherDisplay:10.37,2013-03-12 06:30:00,
2013-03-12 02:35:00,34.7,8.5,29.53,WSW,247,9.7,9.7,33,0.00,CLR,,0.00,WeatherDisplay:10.37,2013-03-12 06:35:00,
2013-03-12 02:40:00,34.5,8.3,29.53,WSW,247,9.7,9.7,33,0.00,CLR,,0.00,WeatherDisplay:10.37,2013-03-12 06:40:00,
2013-03-12 02:45:00,34.5,8.3,29.58,SSW,202,9.7,9.7,33,0.00,CLR,,0.00,WeatherDisplay:10.37,2013-03-12 06:45:00,
2013-03-12 02:50:00,34.5,8.3,29.58,WSW,247,9.7,9.7,33,0.00,CLR,,0.00,WeatherDisplay:10.37,2013-03-12 06:50:00,
2013-03-12 02:55:00,34.3,8.2,29.59,South,180,9.7,9.7,33,0.00,CLR,,0.00,WeatherDisplay:10.37,2013-03-12 06:55:00,
2013-03-12 03:00:00,34.2,8.0,29.53,NW,315,9.7,9.7,33,0.00,CLR,,0.00,WeatherDisplay:10.37,2013-03-12 07:00:00,
2013-03-12 03:05:00,34.2,8.0,29.54,SW,225,9.7,9.7,33,0.00,CLR,,0.00,WeatherDisplay:10.37,2013-03-12 07:05:00,
2013-03-12 03:10:00,34.2,8.0,29.54,WSW,247,7.3,7.3,33,0.00,CLR,,0.00,WeatherDisplay:10.37,2013-03-12 07:10:00,
2013-03-12 03:15:00,34.2,8.0,29.55,WSW,247,7.3,7.3,33,0.00,CLR,,0.00,WeatherDisplay:10.37,2013-03-12 07:15:00,
2013-03-12 03:20:00,34.2,8.0,29.56,West,270,7.3,7.3,33,0.00,CLR,,0.00,WeatherDisplay:10.37,2013-03-12 07:20:00,
2013-03-12 03:25:00,34.2,8.0,29.55,West,270,7.3,7.3,33,0.00,CLR,,0.00,WeatherDisplay:10.37,2013-03-12 07:25:00,
2013-03-12 03:30:00,34.2,7.3,29.56,WSW,247,7.3,7.3,32,0.00,CLR,,0.00,WeatherDisplay:10.37,2013-03-12 07:30:00,
2013-03-12 03:35:00,34.2,7.3,29.56,SW,225,7.3,7.3,32,0.00,CLR,,0.00,WeatherDisplay:10.37,2013-03-12 07:35:00,
2013-03-12 03:40:00,34.2,8.0,29.55,SW,225,7.3,7.3,33,0.00,CLR,,0.00,WeatherDisplay:10.37,2013-03-12 07:40:00,
2013-03-12 03:45:00,34.2,7.3,29.54,WSW,247,7.3,7.3,32,0.00,CLR,,0.00,WeatherDisplay:10.37,2013-03-12 07:45:00,
2013-03-12 03:50:00,34.2,7.3,29.53,WSW,247,7.3,7.3,32,0.00,CLR,,0.00,WeatherDisplay:10.37,2013-03-12 07:50:00,
2013-03-12 03:55:00,34.3,7.5,29.58,SW,225,7.3,7.3,32,0.00,CLR,,0.00,WeatherDisplay:10.37,2013-03-12 07:55:00,
2013-03-12 04:00:00,34.2,7.3,29.58,SSE,157,7.3,7.3,32,0.00,CLR,,0.00,WeatherDisplay:10.37,2013-03-12 08:00:00,
2013-03-12 04:05:00,34.2,7.3,29.53,West,270,7.3,7.3,32,0.00,CLR,,0.00,WeatherDisplay:10.37,2013-03-12 08:05:00,
2013-03-12 04:10:00,34.2,7.3,29.53,WSW,247,6.5,6.5,32,0.00,CLR,,0.00,WeatherDisplay:10.37,2013-03-12 08:10:00,
2013-03-12 04:15:00,34.0,7.2,29.54,SW,225,7.3,7.3,32,0.00,CLR,,0.00,WeatherDisplay:10.37,2013-03-12 08:15:00,
2013-03-12 04:20:00,34.0,7.2,29.55,West,270,7.3,7.3,32,0.00,CLR,,0.00,WeatherDisplay:10.37,2013-03-12 08:20:00,
2013-03-12 04:25:00,34.0,7.2,29.55,WSW,247,8.1,8.1,32,0.00,CLR,,0.00,WeatherDisplay:10.37,2013-03-12 08:25:00,
2013-03-12 04:30:00,33.8,7.0,29.55,West,270,8.1,8.1,32,0.00,CLR,,0.00,WeatherDisplay:10.37,2013-03-12 08:30:00,
2013-03-12 04:35:00,34.0,7.2,29.56,South,180,8.1,8.1,32,0.00,CLR,,0.00,WeatherDisplay:10.37,2013-03-12 08:35:00,
2013-03-12 04:40:00,33.8,7.0,29.55,SW,225,8.1,8.1,32,0.00,CLR,,0.00,WeatherDisplay:10.37,2013-03-12 08:40:00,
2013-03-12 04:45:00,33.8,7.0,29.56,West,270,8.1,8.1,32,0.00,CLR,,0.00,WeatherDisplay:10.37,2013-03-12 08:45:00,
2013-03-12 04:50:00,33.8,7.0,29.56,SW,225,8.1,8.1,32,0.00,CLR,,0.00,WeatherDisplay:10.37,2013-03-12 08:50:00,
2013-03-12 04:55:00,33.8,7.0,29.56,SW,225,8.1,8.1,32,0.00,CLR,,0.00,WeatherDisplay:10.37,2013-03-12 08:55:00,
2013-03-12 05:00:00,33.6,6.8,29.55,West,270,8.1,8.1,32,0.00,CLR,,0.00,WeatherDisplay:10.37,2013-03-12 09:00:00,
2013-03-12 05:05:00,33.6,6.8,29.54,South,180,8.1,8.1,32,0.00,CLR,,0.00,WeatherDisplay:10.37,2013-03-12 09:05:00,
2013-03-12 05:10:00,33.8,7.0,29.59,SW,225,4.6,4.6,32,0.00,CLR,,0.00,WeatherDisplay:10.37,2013-03-12 09:10:00,
2013-03-12 05:15:00,33.8,6.3,29.59,WSW,247,6.1,6.1,31,0.00,CLR,,0.00,WeatherDisplay:10.37,2013-03-12 09:15:00,
2013-03-12 05:20:00,33.6,6.1,29.54,SSW,202,6.1,6.1,31,0.00,CLR,,0.00,WeatherDisplay:10.37,2013-03-12 09:20:00,
2013-03-12 05:25:00,33.6,6.8,29.54,West,270,6.1,6.1,32,0.00,CLR,,0.00,WeatherDisplay:10.37,2013-03-12 09:25:00,
2013-03-12 05:30:00,33.6,6.8,29.54,South,180,6.1,6.1,32,0.00,CLR,,0.00,WeatherDisplay:10.37,2013-03-12 09:30:00,
2013-03-12 05:35:00,33.6,6.1,29.56,WSW,247,6.1,6.1,31,0.00,CLR,,0.00,WeatherDisplay:10.37,2013-03-12 09:35:00,
2013-03-12 05:40:00,33.6,6.8,29.57,SW,225,6.3,6.3,32,0.00,CLR,,0.00,WeatherDisplay:10.37,2013-03-12 09:40:00,
2013-03-12 05:45:00,33.6,6.1,29.57,SW,225,6.3,6.3,31,0.00,CLR,,0.00,WeatherDisplay:10.37,2013-03-12 09:45:00,
2013-03-12 05:50:00,33.6,6.1,29.58,WSW,247,7.1,7.1,31,0.00,CLR,,0.00,WeatherDisplay:10.37,2013-03-12 09:50:00,
2013-03-12 05:55:00,33.6,6.1,29.58,SW,225,7.1,7.1,31,0.00,CLR,,0.00,WeatherDisplay:10.37,2013-03-12 09:55:00,
2013-03-12 06:00:00,33.6,6.1,29.59,WSW,247,7.1,7.1,31,0.00,CLR,,0.00,WeatherDisplay:10.37,2013-03-12 10:00:00,
2013-03-12 06:05:00,33.6,6.1,29.60,South,180,7.1,7.1,31,0.00,CLR,,0.00,WeatherDisplay:10.37,2013-03-12 10:05:00,
2013-03-12 06:10:00,33.6,6.1,29.59,West,270,4.0,4.0,31,0.00,CLR,,0.00,WeatherDisplay:10.37,2013-03-12 10:10:00,
2013-03-12 06:15:00,33.4,6.0,29.58,WSW,247,5.1,5.1,31,0.00,CLR,,0.00,WeatherDisplay:10.37,2013-03-12 10:15:00,
2013-03-12 06:20:00,33.4,6.0,29.58,SW,225,5.8,5.8,31,0.00,CLR,,0.00,WeatherDisplay:10.37,2013-03-12 10:20:00,
2013-03-12 06:26:00,33.4,6.0,29.63,SW,225,5.8,5.8,31,0.00,CLR,,0.00,WeatherDisplay:10.37,2013-03-12 10:26:00,
2013-03-12 06:31:00,33.4,6.0,29.58,SSW,202,5.8,5.8,31,0.00,CLR,,0.00,WeatherDisplay:10.37,2013-03-12 10:31:00,
2013-03-12 06:36:00,33.4,6.0,29.58,WSW,247,5.8,5.8,31,0.00,CLR,,0.00,WeatherDisplay:10.37,2013-03-12 10:36:00,
2013-03-12 06:41:00,33.4,6.0,29.58,WSW,247,5.8,5.8,31,0.00,CLR,,0.00,WeatherDisplay:10.37,2013-03-12 10:41:00,
2013-03-12 06:46:00,33.4,6.0,29.59,SW,225,5.8,5.8,31,0.00,CLR,,0.00,WeatherDisplay:10.37,2013-03-12 10:46:00,
2013-03-12 06:51:00,33.4,6.0,29.60,SW,225,5.8,5.8,31,0.00,CLR,,0.00,WeatherDisplay:10.37,2013-03-12 10:51:00,
2013-03-12 06:56:00,33.4,6.0,29.61,WSW,247,7.3,7.3,31,0.00,CLR,,0.00,WeatherDisplay:10.37,2013-03-12 10:56:00,
2013-03-12 07:01:00,33.4,6.0,29.61,WSW,247,7.3,7.3,31,0.00,CLR,,0.00,WeatherDisplay:10.37,2013-03-12 11:01:00,
2013-03-12 07:06:00,33.4,6.0,29.61,West,270,4.6,4.6,31,0.00,CLR,,0.00,WeatherDisplay:10.37,2013-03-12 11:06:00,
2013-03-12 07:11:00,33.3,5.8,29.63,South,180,4.6,4.6,31,0.00,CLR,,0.00,WeatherDisplay:10.37,2013-03-12 11:11:00,
2013-03-12 07:16:00,33.1,5.7,29.63,NNW,337,6.9,6.9,31,0.00,CLR,,0.00,WeatherDisplay:10.37,2013-03-12 11:16:00,
2013-03-12 07:21:00,32.5,5.2,29.64,SW,225,8.4,8.4,31,0.00,CLR,,0.00,WeatherDisplay:10.37,2013-03-12 11:21:00,
2013-03-12 07:26:00,32.4,5.0,29.63,West,270,8.4,8.4,31,0.00,CLR,,0.00,WeatherDisplay:10.37,2013-03-12 11:26:00,
2013-03-12 07:31:00,32.4,5.0,29.62,NW,315,8.4,8.4,31,0.00,CLR,,0.00,WeatherDisplay:10.37,2013-03-12 11:31:00,
2013-03-12 07:36:00,32.2,4.9,29.61,WNW,292,8.4,8.4,31,0.00,CLR,,0.00,WeatherDisplay:10.37,2013-03-12 11:36:00,
2013-03-12 07:41:00,32.2,4.9,29.60,NNW,337,8.4,8.4,31,0.00,CLR,,0.00,WeatherDisplay:10.37,2013-03-12 11:41:00,
2013-03-12 07:46:00,32.2,4.9,29.60,West,270,8.4,8.4,31,0.00,CLR,,0.00,WeatherDisplay:10.37,2013-03-12 11:46:00,
2013-03-12 07:51:00,32.4,5.0,29.60,SW,225,8.4,8.4,31,0.00,CLR,,0.00,WeatherDisplay:10.37,2013-03-12 11:51:00,
2013-03-12 07:56:00,32.4,5.0,29.62,SW,225,8.4,8.4,31,0.00,CLR,,0.00,WeatherDisplay:10.37,2013-03-12 11:56:00,
2013-03-12 08:02:00,32.5,5.2,29.62,SSW,202,8.4,8.4,31,0.00,CLR,,0.00,WeatherDisplay:10.37,2013-03-12 12:02:00,
2013-03-12 08:07:00,32.5,5.2,29.62,WSW,247,5.8,5.8,31,0.00,CLR,,0.00,WeatherDisplay:10.37,2013-03-12 12:07:00,
2013-03-12 08:12:00,32.5,5.2,29.63,WNW,292,5.8,5.8,31,0.00,CLR,,0.00,WeatherDisplay:10.37,2013-03-12 12:12:00,
2013-03-12 08:17:00,32.5,5.2,29.63,WSW,247,5.8,5.8,31,0.00,CLR,,0.00,WeatherDisplay:10.37,2013-03-12 12:17:00,
2013-03-12 08:22:00,32.5,5.2,29.64,West,270,5.8,5.8,31,0.00,CLR,,0.00,WeatherDisplay:10.37,2013-03-12 12:22:00,
2013-03-12 08:27:00,32.5,5.2,29.64,WSW,247,5.8,5.8,31,0.00,CLR,,0.00,WeatherDisplay:10.37,2013-03-12 12:27:00,
2013-03-12 08:32:00,32.7,5.4,29.64,SW,225,5.8,5.8,31,0.00,CLR,,0.00,WeatherDisplay:10.37,2013-03-12 12:32:00,
2013-03-12 08:37:00,32.7,5.4,29.65,WSW,247,5.8,5.8,31,0.00,CLR,,0.00,WeatherDisplay:10.37,2013-03-12 12:37:00,
2013-03-12 08:42:00,32.7,5.4,29.64,NW,315,5.8,5.8,31,0.00,CLR,,0.00,WeatherDisplay:10.37,2013-03-12 12:42:00,
2013-03-12 08:47:00,32.7,6.1,29.63,NW,315,5.8,5.8,32,0.00,CLR,,0.00,WeatherDisplay:10.37,2013-03-12 12:47:00,
2013-03-12 08:52:00,32.9,6.2,29.63,SW,225,5.9,5.9,32,0.00,CLR,,0.00,WeatherDisplay:10.37,2013-03-12 12:52:00,
2013-03-12 08:57:00,32.9,6.2,29.62,West,270,5.9,5.9,32,0.00,CLR,,0.00,WeatherDisplay:10.37,2013-03-12 12:57:00,
2013-03-12 09:02:00,32.9,6.2,29.63,WNW,292,5.9,5.9,32,0.00,CLR,,0.00,WeatherDisplay:10.37,2013-03-12 13:02:00,
2013-03-12 09:07:00,32.9,6.2,29.64,SW,225,5.9,5.9,32,0.00,CLR,,0.00,WeatherDisplay:10.37,2013-03-12 13:07:00,
2013-03-12 09:12:00,32.7,6.1,29.64,WSW,247,5.9,5.9,32,0.00,CLR,,0.00,WeatherDisplay:10.37,2013-03-12 13:12:00,
2013-03-12 09:17:00,32.7,6.1,29.64,WSW,247,5.9,5.9,32,0.00,CLR,,0.00,WeatherDisplay:10.37,2013-03-12 13:17:00,
2013-03-12 09:22:00,32.5,5.9,29.65,West,270,9.2,9.2,32,0.00,CLR,,0.00,WeatherDisplay:10.37,2013-03-12 13:22:00,
2013-03-12 09:27:00,32.5,5.9,29.66,West,270,9.2,9.2,32,0.00,CLR,,0.00,WeatherDisplay:10.37,2013-03-12 13:27:00,
2013-03-12 09:32:00,32.7,6.1,29.66,West,270,9.2,9.2,32,0.00,CLR,,0.00,WeatherDisplay:10.37,2013-03-12 13:32:00,
2013-03-12 09:37:00,32.7,6.1,29.66,SW,225,9.2,9.2,32,0.00,CLR,,0.00,WeatherDisplay:10.37,2013-03-12 13:37:00,
2013-03-12 09:42:00,32.7,6.1,29.66,SW,225,9.2,9.2,32,0.00,CLR,,0.00,WeatherDisplay:10.37,2013-03-12 13:42:00,
2013-03-12 09:47:00,32.7,6.1,29.67,WSW,247,9.2,9.2,32,0.00,CLR,,0.00,WeatherDisplay:10.37,2013-03-12 13:47:00,
2013-03-12 09:52:00,32.7,6.1,29.67,WSW,247,9.2,9.2,32,0.00,CLR,,0.00,WeatherDisplay:10.37,2013-03-12 13:52:00,
2013-03-12 09:57:00,32.7,6.1,29.68,West,270,9.2,9.2,32,0.00,CLR,,0.00,WeatherDisplay:10.37,2013-03-12 13:57:00,
2013-03-12 10:02:00,32.7,6.1,29.67,West,270,9.2,9.2,32,0.00,CLR,,0.00,WeatherDisplay:10.37,2013-03-12 14:02:00,
2013-03-12 10:08:00,32.7,6.1,29.66,WNW,292,5.1,5.1,32,0.00,CLR,,0.00,WeatherDisplay:10.37,2013-03-12 14:08:00,
2013-03-12 10:13:00,32.9,6.9,29.65,West,270,5.1,5.1,33,0.00,CLR,,0.00,WeatherDisplay:10.37,2013-03-12 14:13:00,
2013-03-12 10:18:00,33.1,6.4,29.65,WNW,292,5.1,5.1,32,0.00,CLR,,0.00,WeatherDisplay:10.37,2013-03-12 14:18:00,
2013-03-12 10:23:00,33.3,6.5,29.66,West,270,5.8,5.8,32,0.00,CLR,,0.00,WeatherDisplay:10.37,2013-03-12 14:23:00,
2013-03-12 10:28:00,33.3,6.5,29.66,West,270,5.8,5.8,32,0.00,CLR,,0.00,WeatherDisplay:10.37,2013-03-12 14:28:00,
2013-03-12 10:33:00,33.4,6.7,29.67,West,270,5.8,5.8,32,0.00,CLR,,0.00,WeatherDisplay:10.37,2013-03-12 14:33:00,
2013-03-12 10:38:00,33.3,6.5,29.68,WSW,247,6.7,6.7,32,0.00,CLR,,0.00,WeatherDisplay:10.37,2013-03-12 14:38:00,
2013-03-12 10:43:00,33.3,6.5,29.68,West,270,6.9,6.9,32,0.00,CLR,,0.00,WeatherDisplay:10.37,2013-03-12 14:43:00,
2013-03-12 10:48:00,33.6,6.8,29.68,WSW,247,8.6,8.6,32,0.00,CLR,,0.00,WeatherDisplay:10.37,2013-03-12 14:48:00,
2013-03-12 10:53:00,34.0,7.2,29.69,WNW,292,9.2,9.2,32,0.00,CLR,,0.00,WeatherDisplay:10.37,2013-03-12 14:53:00,
2013-03-12 10:59:00,34.5,7.6,29.69,WNW,292,9.2,9.2,32,0.00,CLR,,0.00,WeatherDisplay:10.37,2013-03-12 14:59:00,
2013-03-12 11:04:00,34.7,7.8,29.69,West,270,9.2,9.2,32,0.00,CLR,,0.00,WeatherDisplay:10.37,2013-03-12 15:04:00,
2013-03-12 11:09:00,34.7,8.5,29.67,WSW,247,6.1,6.1,33,0.00,CLR,,0.00,WeatherDisplay:10.37,2013-03-12 15:09:00,
2013-03-12 11:14:00,34.7,8.5,29.67,SW,225,7.3,7.3,33,0.00,CLR,,0.00,WeatherDisplay:10.37,2013-03-12 15:14:00,
2013-03-12 11:19:00,34.7,8.5,29.66,West,270,7.3,7.3,33,0.00,CLR,,0.00,WeatherDisplay:10.37,2013-03-12 15:19:00,
2013-03-12 11:24:00,34.9,8.6,29.66,SW,225,7.3,7.3,33,0.00,CLR,,0.00,WeatherDisplay:10.37,2013-03-12 15:24:00,
2013-03-12 11:30:00,35.1,8.8,29.66,SW,225,7.0,7.0,33,0.00,CLR,CLR,0.00,WeatherDisplay:10.37,2013-03-12 15:30:00,
2013-03-12 11:35:00,35.6,9.3,29.68,WSW,247,7.3,7.3,33,0.00,CLR,,0.00,WeatherDisplay:10.37,2013-03-12 15:35:00,
2013-03-12 11:40:00,36.0,9.6,29.68,NW,315,7.3,7.3,33,0.00,CLR,,0.00,WeatherDisplay:10.37,2013-03-12 15:40:00,
2013-03-12 11:45:00,36.5,9.4,29.68,NW,315,7.3,7.3,32,0.00,CLR,,0.00,WeatherDisplay:10.37,2013-03-12 15:45:00,
2013-03-12 11:50:00,36.9,10.4,29.68,West,270,7.3,7.3,33,0.00,CLR,,0.00,WeatherDisplay:10.37,2013-03-12 15:50:00,
2013-03-12 11:55:00,37.2,10.0,29.68,West,270,7.3,7.3,32,0.00,CLR,,0.00,WeatherDisplay:10.37,2013-03-12 15:55:00,
2013-03-12 12:01:00,37.8,11.2,29.69,WSW,247,7.3,7.3,33,0.00,CLR,,0.00,WeatherDisplay:10.37,2013-03-12 16:01:00,
2013-03-12 12:06:00,37.6,11.0,29.69,WSW,247,9.2,9.2,33,0.00,CLR,,0.00,WeatherDisplay:10.37,2013-03-12 16:06:00,
2013-03-12 12:11:00,36.9,10.4,29.69,WSW,247,9.7,9.7,33,0.00,CLR,,0.00,WeatherDisplay:10.37,2013-03-12 16:11:00,
2013-03-12 12:17:00,37.4,10.2,29.69,WSW,247,9.7,9.7,32,0.00,CLR,,0.00,WeatherDisplay:10.37,2013-03-12 16:17:00,
2013-03-12 12:22:00,38.1,11.5,29.69,WSW,247,9.7,9.7,33,0.00,CLR,,0.00,WeatherDisplay:10.37,2013-03-12 16:22:00,
2013-03-12 12:27:00,38.7,12.0,29.68,West,270,9.7,9.7,33,0.00,CLR,,0.00,WeatherDisplay:10.37,2013-03-12 16:27:00,
2013-03-12 12:32:00,39.7,12.9,29.67,WNW,292,9.7,9.7,33,0.00,CLR,,0.00,WeatherDisplay:10.37,2013-03-12 16:32:00,
2013-03-12 12:37:00,39.7,12.9,29.67,WSW,247,9.7,9.7,33,0.00,CLR,,0.00,WeatherDisplay:10.37,2013-03-12 16:37:00,
2013-03-12 12:42:00,37.9,10.7,29.67,West,270,9.7,9.7,32,0.00,CLR,,0.00,WeatherDisplay:10.37,2013-03-12 16:42:00,
2013-03-12 12:47:00,37.2,10.7,29.67,West,270,9.7,9.7,33,0.00,CLR,,0.00,WeatherDisplay:10.37,2013-03-12 16:47:00,
2013-03-12 12:52:00,36.9,10.4,29.68,WNW,292,9.7,9.7,33,0.00,CLR,,0.00,WeatherDisplay:10.37,2013-03-12 16:52:00,
2013-03-12 12:57:00,36.7,9.5,29.68,NNW,337,9.7,9.7,32,0.00,CLR,,0.00,WeatherDisplay:10.37,2013-03-12 16:57:00,
2013-03-12 13:02:00,36.9,10.4,29.69,WSW,247,9.7,9.7,33,0.00,CLR,,0.00,WeatherDisplay:10.37,2013-03-12 17:02:00,
2013-03-12 13:07:00,37.0,10.6,29.69,NW,315,3.6,3.6,33,0.00,CLR,,0.00,WeatherDisplay:10.37,2013-03-12 17:07:00,
2013-03-12 13:13:00,36.9,10.4,29.69,WNW,292,4.6,4.6,33,0.00,CLR,,0.00,WeatherDisplay:10.37,2013-03-12 17:13:00,
2013-03-12 13:18:00,37.0,10.6,29.69,WNW,292,4.6,4.6,33,0.00,CLR,,0.00,WeatherDisplay:10.37,2013-03-12 17:18:00,
2013-03-12 13:23:00,37.2,10.7,29.69,West,270,6.3,6.3,33,0.00,CLR,,0.00,WeatherDisplay:10.37,2013-03-12 17:23:00,
2013-03-12 13:32:00,37.2,10.0,29.71,North,0,5.8,0.0,32,0.00,CLR,,0.00,WeatherDisplay:10.37,2013-03-12 17:32:00,
2013-03-12 13:37:00,37.2,10.7,29.69,WSW,247,8.1,8.1,33,0.00,CLR,,0.00,WeatherDisplay:10.37,2013-03-12 17:37:00,
2013-03-12 13:43:00,37.2,10.7,29.69,West,270,8.1,8.1,33,0.00,CLR,,0.00,WeatherDisplay:10.37,2013-03-12 17:43:00,
2013-03-12 13:48:00,37.4,10.9,29.73,West,270,8.1,8.1,33,0.00,CLR,,0.00,WeatherDisplay:10.37,2013-03-12 17:48:00,
2013-03-12 13:54:00,37.4,10.2,29.72,WNW,292,8.1,8.1,32,0.00,CLR,,0.00,WeatherDisplay:10.37,2013-03-12 17:54:00,
2013-03-12 13:59:00,37.4,10.2,29.72,WNW,292,8.1,8.1,32,0.00,CLR,,0.00,WeatherDisplay:10.37,2013-03-12 17:59:00,
2013-03-12 14:04:00,37.4,10.2,29.66,SW,225,8.1,8.1,32,0.00,CLR,,0.00,WeatherDisplay:10.37,2013-03-12 18:04:00,
2013-03-12 14:09:00,40.5,12.9,29.67,WSW,247,6.1,6.1,32,0.00,CLR,,0.00,WeatherDisplay:10.37,2013-03-12 18:09:00,
2013-03-12 14:14:00,39.6,12.1,29.67,WNW,292,6.1,6.1,32,0.00,CLR,,0.00,WeatherDisplay:10.37,2013-03-12 18:14:00,
2013-03-12 14:19:00,39.6,12.1,29.67,WNW,292,6.1,6.1,32,0.00,CLR,,0.00,WeatherDisplay:10.37,2013-03-12 18:19:00,
2013-03-12 14:24:00,39.2,11.8,29.68,WNW,292,7.3,7.3,32,0.00,CLR,,0.00,WeatherDisplay:10.37,2013-03-12 18:24:00,
2013-03-12 14:29:00,38.5,11.1,29.68,WNW,292,8.1,8.1,32,0.00,CLR,,0.00,WeatherDisplay:10.37,2013-03-12 18:29:00,
2013-03-12 14:34:00,38.5,11.1,29.68,WNW,292,8.1,8.1,32,0.00,CLR,,0.00,WeatherDisplay:10.37,2013-03-12 18:34:00,
2013-03-12 14:39:00,38.5,11.1,29.68,WSW,247,8.1,8.1,32,0.00,CLR,,0.00,WeatherDisplay:10.37,2013-03-12 18:39:00,
2013-03-12 14:44:00,39.9,12.4,29.68,WSW,247,8.1,8.1,32,0.00,CLR,,0.00,WeatherDisplay:10.37,2013-03-12 18:44:00,
2013-03-12 14:49:00,39.9,12.4,29.68,West,270,8.1,8.1,32,0.00,CLR,,0.00,WeatherDisplay:10.37,2013-03-12 18:49:00,
2013-03-12 14:54:00,39.2,11.8,29.69,SW,225,8.1,8.1,32,0.00,CLR,,0.00,WeatherDisplay:10.37,2013-03-12 18:54:00,
2013-03-12 15:00:00,38.7,11.3,29.68,West,273,6.0,8.0,32,0.00,CLR,CLR,0.00,WeatherDisplay:10.37,2013-03-12 19:00:00,
2013-03-12 15:05:00,38.7,11.3,29.69,West,277,6.0,8.0,32,0.00,CLR,CLR,0.00,WeatherDisplay:10.37,2013-03-12 19:05:00,
2013-03-12 15:10:00,38.7,12.0,29.69,West,263,6.0,8.0,33,0.00,CLR,CLR,0.00,WeatherDisplay:10.37,2013-03-12 19:10:00,
2013-03-12 15:15:00,38.5,11.8,29.68,West,264,6.0,8.0,33,0.00,CLR,CLR,0.00,WeatherDisplay:10.37,2013-03-12 19:15:00,
2013-03-12 15:20:00,38.1,11.5,29.67,West,276,6.0,7.0,33,0.00,CLR,CLR,0.00,WeatherDisplay:10.37,2013-03-12 19:20:00,
2013-03-12 15:25:00,38.3,11.0,29.66,West,272,6.0,7.0,32,0.00,CLR,CLR,0.00,WeatherDisplay:10.37,2013-03-12 19:25:00,
2013-03-12 15:30:00,38.7,11.3,29.66,West,266,6.0,7.0,32,0.00,CLR,CLR,0.00,WeatherDisplay:10.37,2013-03-12 19:30:00,
2013-03-12 15:35:00,38.5,11.1,29.66,West,278,7.0,7.0,32,0.00,CLR,CLR,0.00,WeatherDisplay:10.37,2013-03-12 19:35:00,
2013-03-12 15:40:00,38.5,11.1,29.66,West,281,7.0,7.0,32,0.00,CLR,CLR,0.00,WeatherDisplay:10.37,2013-03-12 19:40:00,
2013-03-12 15:45:00,37.8,10.5,29.67,West,280,6.0,7.0,32,0.00,CLR,CLR,0.00,WeatherDisplay:10.37,2013-03-12 19:45:00,
2013-03-12 15:50:00,37.2,10.0,29.67,West,278,6.0,7.0,32,0.00,CLR,CLR,0.00,WeatherDisplay:10.37,2013-03-12 19:50:00,
2013-03-12 15:55:00,37.2,10.0,29.68,West,265,6.0,7.0,32,0.00,CLR,CLR,0.00,WeatherDisplay:10.37,2013-03-12 19:55:00,
2013-03-12 16:00:00,37.4,10.2,29.68,West,265,5.0,7.0,32,0.00,CLR,CLR,0.00,WeatherDisplay:10.37,2013-03-12 20:00:00,
2013-03-12 16:05:00,37.5,10.2,29.68,WSW,258,5.0,7.0,32,0.00,CLR,CLR,0.00,WeatherDisplay:10.37,2013-03-12 20:05:00,
2013-03-12 16:10:00,37.4,10.2,29.68,WSW,256,3.0,4.0,32,0.00,CLR,CLR,0.00,WeatherDisplay:10.37,2013-03-12 20:10:00,
2013-03-12 16:15:00,37.4,10.2,29.69,SW,225,7.1,7.1,32,0.00,CLR,,0.00,WeatherDisplay:10.37,2013-03-12 20:15:00,
2013-03-12 16:20:00,37.2,10.0,29.69,WSW,247,7.1,7.1,32,0.00,CLR,,0.00,WeatherDisplay:10.37,2013-03-12 20:20:00,
2013-03-12 16:25:00,37.2,10.0,29.69,WNW,292,7.1,7.1,32,0.00,CLR,,0.00,WeatherDisplay:10.37,2013-03-12 20:25:00,
2013-03-12 16:31:00,36.7,9.5,29.69,NW,315,7.1,7.1,32,0.00,CLR,,0.00,WeatherDisplay:10.37,2013-03-12 20:31:00,
2013-03-12 16:36:00,36.7,9.5,29.69,WNW,292,7.1,7.1,32,0.00,CLR,,0.00,WeatherDisplay:10.37,2013-03-12 20:36:00,
2013-03-12 16:42:00,35.6,7.9,29.69,West,270,7.1,7.1,31,0.00,CLR,,0.00,WeatherDisplay:10.37,2013-03-12 20:42:00,
2013-03-12 16:47:00,35.4,7.7,29.68,WNW,292,7.1,7.1,31,0.00,CLR,,0.00,WeatherDisplay:10.37,2013-03-12 20:47:00,
2013-03-12 16:53:00,35.1,7.4,29.68,WNW,292,7.1,7.1,31,0.00,CLR,,0.00,WeatherDisplay:10.37,2013-03-12 20:53:00,
2013-03-12 16:58:00,35.1,7.4,29.69,West,270,7.1,7.1,31,0.00,CLR,,0.00,WeatherDisplay:10.37,2013-03-12 20:58:00,
2013-03-12 17:03:00,35.1,7.4,29.69,West,270,7.1,7.1,31,0.00,CLR,,0.00,WeatherDisplay:10.37,2013-03-12 21:03:00,
2013-03-12 17:08:00,35.1,7.4,29.69,WNW,292,7.1,7.1,31,0.00,CLR,,0.00,WeatherDisplay:10.37,2013-03-12 21:08:00,
2013-03-12 17:13:00,35.1,7.4,29.71,WNW,292,7.1,7.1,31,0.00,CLR,,0.00,WeatherDisplay:10.37,2013-03-12 21:13:00,
2013-03-12 17:18:00,35.1,7.4,29.71,WNW,292,7.1,7.1,31,0.00,CLR,,0.00,WeatherDisplay:10.37,2013-03-12 21:18:00,
2013-03-12 17:23:00,34.7,7.1,29.71,WNW,292,6.3,6.3,31,0.00,CLR,,0.00,WeatherDisplay:10.37,2013-03-12 21:23:00,
2013-03-12 17:28:00,34.7,7.1,29.72,West,270,6.3,6.3,31,0.00,CLR,,0.00,WeatherDisplay:10.37,2013-03-12 21:28:00,
2013-03-12 17:34:00,34.7,7.1,29.72,West,270,6.3,6.3,31,0.00,CLR,,0.00,WeatherDisplay:10.37,2013-03-12 21:34:00,
2013-03-12 17:39:00,34.3,6.8,29.72,WNW,292,6.3,6.3,31,0.00,CLR,,0.00,WeatherDisplay:10.37,2013-03-12 21:39:00,
2013-03-12 17:44:00,34.3,6.8,29.72,WSW,247,6.3,6.3,31,0.00,CLR,,0.00,WeatherDisplay:10.37,2013-03-12 21:44:00,
2013-03-12 17:49:00,34.0,6.5,29.71,WNW,292,6.3,6.3,31,0.00,CLR,,0.00,WeatherDisplay:10.37,2013-03-12 21:49:00,
2013-03-12 17:54:00,34.0,6.5,29.69,WSW,247,6.3,6.3,31,0.00,CLR,,0.00,WeatherDisplay:10.37,2013-03-12 21:54:00,
2013-03-12 17:59:00,34.0,6.5,29.69,West,270,6.3,6.3,31,0.00,CLR,,0.00,WeatherDisplay:10.37,2013-03-12 21:59:00,
2013-03-12 18:04:00,34.0,6.5,29.71,West,270,6.3,6.3,31,0.00,CLR,,0.00,WeatherDisplay:10.37,2013-03-12 22:04:00,
2013-03-12 18:09:00,33.6,6.1,29.72,WNW,292,5.8,5.8,31,0.00,CLR,,0.00,WeatherDisplay:10.37,2013-03-12 22:09:00,
2013-03-12 18:14:00,33.4,6.0,29.72,West,270,6.9,6.9,31,0.00,CLR,,0.00,WeatherDisplay:10.37,2013-03-12 22:14:00,
2013-03-12 18:19:00,33.4,6.0,29.73,West,270,6.9,6.9,31,0.00,CLR,,0.00,WeatherDisplay:10.37,2013-03-12 22:19:00,
2013-03-12 18:24:00,33.4,6.0,29.73,WNW,292,6.9,6.9,31,0.00,CLR,,0.00,WeatherDisplay:10.37,2013-03-12 22:24:00,
2013-03-12 18:29:00,33.4,6.0,29.74,SSW,202,6.9,6.9,31,0.00,CLR,,0.00,WeatherDisplay:10.37,2013-03-12 22:29:00,
2013-03-12 18:34:00,33.3,5.8,29.74,WNW,292,6.9,6.9,31,0.00,CLR,,0.00,WeatherDisplay:10.37,2013-03-12 22:34:00,
2013-03-12 18:39:00,33.3,5.8,29.74,WSW,247,6.9,6.9,31,0.00,CLR,,0.00,WeatherDisplay:10.37,2013-03-12 22:39:00,
2013-03-12 18:44:00,33.1,5.7,29.75,SW,225,6.9,6.9,31,0.00,CLR,,0.00,WeatherDisplay:10.37,2013-03-12 22:44:00,
2013-03-12 18:49:00,33.1,5.7,29.75,West,270,6.9,6.9,31,0.00,CLR,,0.00,WeatherDisplay:10.37,2013-03-12 22:49:00,
2013-03-12 18:54:00,32.9,5.5,29.73,West,270,6.9,6.9,31,0.00,CLR,,0.00,WeatherDisplay:10.37,2013-03-12 22:54:00,
2013-03-12 18:59:00,32.9,5.5,29.73,SW,225,6.9,6.9,31,0.00,CLR,,0.00,WeatherDisplay:10.37,2013-03-12 22:59:00,
2013-03-12 19:04:00,32.9,5.5,29.72,West,270,6.9,6.9,31,0.00,CLR,,0.00,WeatherDisplay:10.37,2013-03-12 23:04:00,
2013-03-12 19:09:00,32.5,5.2,29.73,WNW,292,6.9,6.9,31,0.00,CLR,,0.00,WeatherDisplay:10.37,2013-03-12 23:09:00,
2013-03-12 19:14:00,32.5,5.2,29.74,WNW,292,6.9,6.9,31,0.00,CLR,,0.00,WeatherDisplay:10.37,2013-03-12 23:14:00,
2013-03-12 19:19:00,32.2,4.9,29.74,WSW,247,6.9,6.9,31,0.00,CLR,,0.00,WeatherDisplay:10.37,2013-03-12 23:19:00,
2013-03-12 19:24:00,32.2,4.9,29.75,WNW,292,6.9,6.9,31,0.00,CLR,,0.00,WeatherDisplay:10.37,2013-03-12 23:24:00,
2013-03-12 19:29:00,32.0,4.7,29.75,West,270,6.9,6.9,31,0.00,CLR,,0.00,WeatherDisplay:10.37,2013-03-12 23:29:00,
2013-03-12 19:34:00,32.0,4.7,29.75,WSW,247,6.9,6.9,31,0.00,CLR,,0.00,WeatherDisplay:10.37,2013-03-12 23:34:00,
2013-03-12 19:42:00,32.0,4.7,29.75,West,270,9.2,9.2,31,0.00,CLR,,0.00,WeatherDisplay:10.37,2013-03-12 23:42:00,
2013-03-12 19:48:00,32.0,4.7,29.75,WNW,292,9.2,9.2,31,0.00,CLR,,0.00,WeatherDisplay:10.37,2013-03-12 23:48:00,
2013-03-12 19:53:00,31.8,4.6,29.75,WNW,292,9.2,9.2,31,0.00,CLR,,0.00,WeatherDisplay:10.37,2013-03-12 23:53:00,
2013-03-12 19:58:00,31.8,4.6,29.75,West,270,9.2,9.2,31,0.00,CLR,,0.00,WeatherDisplay:10.37,2013-03-12 23:58:00,
2013-03-12 20:03:00,31.8,4.6,29.75,NW,315,9.2,9.2,31,0.00,CLR,,0.00,WeatherDisplay:10.37,2013-03-13 00:03:00,
2013-03-12 20:08:00,31.8,5.3,29.73,West,270,9.2,9.2,32,0.00,CLR,,0.00,WeatherDisplay:10.37,2013-03-13 00:08:00,
2013-03-12 20:13:00,31.8,4.6,29.73,West,270,9.2,9.2,31,0.00,CLR,,0.00,WeatherDisplay:10.37,2013-03-13 00:13:00,
2013-03-12 20:18:00,31.8,4.6,29.74,South,180,4.7,4.7,31,0.00,CLR,,0.00,WeatherDisplay:10.37,2013-03-13 00:18:00,
2013-03-12 20:23:00,31.8,5.3,29.74,WSW,247,4.7,4.7,32,0.00,CLR,,0.00,WeatherDisplay:10.37,2013-03-13 00:23:00,
2013-03-12 20:28:00,31.8,5.3,29.75,SW,225,4.9,4.9,32,0.00,CLR,,0.00,WeatherDisplay:10.37,2013-03-13 00:28:00,
2013-03-12 20:33:00,31.8,5.3,29.75,West,270,4.9,4.9,32,0.00,CLR,,0.00,WeatherDisplay:10.37,2013-03-13 00:33:00,
2013-03-12 20:38:00,31.8,5.3,29.75,WSW,247,4.9,4.9,32,0.00,CLR,,0.00,WeatherDisplay:10.37,2013-03-13 00:38:00,
2013-03-12 20:43:00,31.8,5.3,29.75,WSW,247,4.9,4.9,32,0.00,CLR,,0.00,WeatherDisplay:10.37,2013-03-13 00:43:00,
2013-03-12 20:48:00,31.6,5.1,29.75,WSW,247,5.8,5.8,32,0.00,CLR,,0.00,WeatherDisplay:10.37,2013-03-13 00:48:00,
2013-03-12 20:53:00,31.5,4.9,29.75,WNW,292,5.8,5.8,32,0.00,CLR,,0.00,WeatherDisplay:10.37,2013-03-13 00:53:00,
2013-03-12 20:58:00,31.5,4.9,29.75,WSW,247,5.8,5.8,32,0.00,CLR,,0.00,WeatherDisplay:10.37,2013-03-13 00:58:00,
2013-03-12 21:03:00,31.5,4.9,29.75,SW,225,5.8,5.8,32,0.00,CLR,,0.00,WeatherDisplay:10.37,2013-03-13 01:03:00,
2013-03-12 21:08:00,31.1,4.6,29.77,West,270,5.8,5.8,32,0.00,CLR,,0.00,WeatherDisplay:10.37,2013-03-13 01:08:00,
2013-03-12 21:13:00,30.9,4.5,29.77,NNW,337,3.5,3.5,32,0.00,CLR,,0.00,WeatherDisplay:10.37,2013-03-13 01:13:00,
2013-03-12 21:18:00,30.9,4.5,29.75,SW,225,3.5,3.5,32,0.00,CLR,,0.00,WeatherDisplay:10.37,2013-03-13 01:18:00,
2013-03-12 21:23:00,30.9,4.5,29.77,West,270,4.7,4.7,32,0.00,CLR,,0.00,WeatherDisplay:10.37,2013-03-13 01:23:00,
2013-03-12 21:28:00,30.9,4.5,29.75,SW,225,4.7,4.7,32,0.00,CLR,,0.00,WeatherDisplay:10.37,2013-03-13 01:28:00,
2013-03-12 21:33:00,30.9,4.5,29.75,WSW,247,4.7,4.7,32,0.00,CLR,,0.00,WeatherDisplay:10.37,2013-03-13 01:33:00,
2013-03-12 21:38:00,30.7,4.3,29.73,SW,225,4.9,4.9,32,0.00,CLR,,0.00,WeatherDisplay:10.37,2013-03-13 01:38:00,
2013-03-12 21:43:00,30.7,4.3,29.74,WSW,247,4.9,4.9,32,0.00,CLR,,0.00,WeatherDisplay:10.37,2013-03-13 01:43:00,
2013-03-12 21:48:00,30.6,3.5,29.75,West,270,4.9,4.9,31,0.00,CLR,,0.00,WeatherDisplay:10.37,2013-03-13 01:48:00,
2013-03-12 21:53:00,30.6,4.1,29.75,WNW,292,5.8,5.8,32,0.00,CLR,,0.00,WeatherDisplay:10.37,2013-03-13 01:53:00,
2013-03-12 21:58:00,30.4,4.0,29.75,West,270,5.8,5.8,32,0.00,CLR,,0.00,WeatherDisplay:10.37,2013-03-13 01:58:00,
2013-03-12 22:03:00,30.4,4.0,29.75,WSW,247,5.8,5.8,32,0.00,CLR,,0.00,WeatherDisplay:10.37,2013-03-13 02:03:00,
2013-03-12 22:08:00,30.4,4.0,29.75,SW,225,5.8,5.8,32,0.00,CLR,,0.00,WeatherDisplay:10.37,2013-03-13 02:08:00,
2013-03-12 22:13:00,29.8,3.5,29.75,WSW,247,5.8,5.8,32,0.00,CLR,,0.00,WeatherDisplay:10.37,2013-03-13 02:13:00,
2013-03-12 22:18:00,29.8,3.5,29.77,SW,225,4.6,4.6,32,0.00,CLR,,0.00,WeatherDisplay:10.37,2013-03-13 02:18:00,
2013-03-12 22:23:00,29.7,3.4,29.77,WSW,247,5.8,5.8,32,0.00,CLR,,0.00,WeatherDisplay:10.37,2013-03-13 02:23:00,
2013-03-12 22:28:00,29.7,3.4,29.77,WSW,247,5.8,5.8,32,0.00,CLR,,0.00,WeatherDisplay:10.37,2013-03-13 02:28:00,
2013-03-12 22:33:00,29.7,4.0,29.77,WNW,292,5.8,5.8,33,0.00,CLR,,0.00,WeatherDisplay:10.37,2013-03-13 02:33:00,
2013-03-12 22:38:00,29.7,3.4,29.75,WSW,247,5.8,5.8,32,0.00,CLR,,0.00,WeatherDisplay:10.37,2013-03-13 02:38:00,
2013-03-12 22:43:00,29.7,3.4,29.74,West,270,5.8,5.8,32,0.00,CLR,,0.00,WeatherDisplay:10.37,2013-03-13 02:43:00,
2013-03-12 22:48:00,29.5,3.9,29.73,SW,225,5.8,5.8,33,0.00,CLR,,0.00,WeatherDisplay:10.37,2013-03-13 02:48:00,
2013-03-12 22:53:00,29.5,3.9,29.73,WSW,247,5.8,5.8,33,0.00,CLR,,0.00,WeatherDisplay:10.37,2013-03-13 02:53:00,
2013-03-12 22:58:00,29.5,3.2,29.74,West,270,5.8,5.8,32,0.00,CLR,,0.00,WeatherDisplay:10.37,2013-03-13 02:58:00,
2013-03-12 23:03:00,29.5,3.2,29.75,West,270,5.8,5.8,32,0.00,CLR,,0.00,WeatherDisplay:10.37,2013-03-13 03:03:00,
2013-03-12 23:08:00,29.5,3.9,29.75,WSW,247,5.8,5.8,33,0.00,CLR,,0.00,WeatherDisplay:10.37,2013-03-13 03:08:00,
2013-03-12 23:13:00,29.5,3.9,29.75,SW,225,4.0,4.0,33,0.00,CLR,,0.00,WeatherDisplay:10.37,2013-03-13 03:13:00,
2013-03-12 23:18:00,29.5,3.2,29.75,WNW,292,4.0,4.0,32,0.00,CLR,,0.00,WeatherDisplay:10.37,2013-03-13 03:18:00,
2013-03-12 23:23:00,29.5,3.2,29.75,WSW,247,4.6,4.6,32,0.00,CLR,,0.00,WeatherDisplay:10.37,2013-03-13 03:23:00,
2013-03-12 23:28:00,29.5,3.9,29.75,WSW,247,5.7,5.7,33,0.00,CLR,,0.00,WeatherDisplay:10.37,2013-03-13 03:28:00,
2013-03-12 23:33:00,29.5,3.2,29.75,WSW,247,5.8,5.8,32,0.00,CLR,,0.00,WeatherDisplay:10.37,2013-03-13 03:33:00,
2013-03-12 23:38:00,29.5,3.2,29.74,West,270,5.8,5.8,32,0.00,CLR,,0.00,WeatherDisplay:10.37,2013-03-13 03:38:00,
2013-03-12 23:43:00,29.5,3.2,29.73,SW,225,5.8,5.8,32,0.00,CLR,,0.00,WeatherDisplay:10.37,2013-03-13 03:43:00,
2013-03-12 23:48:00,29.5,3.2,29.73,West,270,5.8,5.8,32,0.00,CLR,,0.00,WeatherDisplay:10.37,2013-03-13 03:48:00,
2013-03-12 23:53:00,29.5,3.2,29.74,WSW,247,5.8,5.8,32,0.00,CLR,,0.00,WeatherDisplay:10.37,2013-03-13 03:53:00,
2013-03-12 23:58:00,29.5,3.2,29.74,WSW,247,5.8,5.8,32,0.00,CLR,,0.00,WeatherDisplay:10.37,2013-03-13 03:58:00,